FW8007 Weather Reports


Display with metric or nautical units.
time (UTC)temp
F
wind
direction
speed
MPH
gust
MPH
rain 1hr
in
rain 24hr
in
rain mn
in
humidity
%
barometer
mb
20260507062517 44 245 0.0 4.0 0.00 0.10 0.00 95 1011.5
20260507062018 44 0 0.0 3.0 0.00 0.10 0.00 94 1011.3
20260507061537 44 0 1.0 3.0 0.00 0.10 0.00 94 1011.2
20260507061016 44 249 1.0 4.0 0.00 0.10 0.00 94 1011.2
20260507060516 44 251 1.0 6.0 0.00 0.10 0.00 94 1011.0
20260507060038 44 0 1.0 6.0 0.00 0.10 0.00 95 1011.0
20260507055519 44 297 1.0 6.0 0.00 0.11 0.00 95 1010.9
20260507055018 44 0 0.0 4.0 0.00 0.11 0.00 95 1010.9
20260507054547 44 240 0.0 4.0 0.00 0.11 0.00 95 1010.9
20260507054020 44 291 0.0 4.0 0.00 0.11 0.00 95 1010.9
20260507053517 44 263 1.0 4.0 0.00 0.11 0.00 95 1010.9
20260507053052 44 307 1.0 4.0 0.00 0.11 0.00 94 1010.7
20260507052528 44 283 0.0 4.0 0.00 0.11 0.00 94 1010.7
20260507052018 44 252 0.0 5.0 0.00 0.11 0.00 94 1010.7
20260507051539 44 271 1.0 5.0 0.00 0.11 0.00 95 1010.6
20260507051022 44 0 0.0 4.0 0.00 0.11 0.00 95 1010.6
20260507050517 43 242 0.0 4.0 0.00 0.11 0.00 94 1010.3
20260507050038 43 315 1.0 4.0 0.00 0.11 0.00 94 1010.2
20260507045517 43 285 1.0 4.0 0.00 0.11 0.00 94 1010.3
20260507045016 43 293 1.0 4.0 0.00 0.11 0.00 94 1010.2
20260507044544 43 271 2.0 4.0 0.00 0.11 0.00 94 1010.4
20260507044016 43 291 0.0 4.0 0.00 0.11 0.00 94 1010.3
20260507043516 43 263 1.0 4.0 0.00 0.11 0.00 94 1010.1
20260507043045 43 347 0.0 7.0 0.00 0.11 0.00 94 1010.1
20260507042517 43 328 1.0 7.0 0.00 0.11 0.00 94 1010.1
20260507042018 43 294 0.0 4.0 0.00 0.11 0.00 94 1010.1
20260507041542 43 0 1.0 5.0 0.00 0.11 0.00 94 1010.0
20260507041017 43 299 1.0 6.0 0.00 0.11 0.00 94 1010.0
20260507040520 43 260 1.0 6.0 0.00 0.11 0.00 94 1009.9
20260507040038 43 249 0.0 6.0 0.00 0.11 0.00 94 1010.0
20260507035519 43 0 1.0 6.0 0.00 0.11 0.00 94 1009.9
20260507035017 43 341 1.0 4.0 0.00 0.11 0.00 94 1009.7
20260507034537 43 249 1.0 4.0 0.00 0.11 0.00 94 1009.8
20260507034016 43 0 1.0 4.0 0.00 0.11 0.00 94 1009.6
20260507033516 43 259 0.0 4.0 0.00 0.11 0.00 94 1009.8
20260507033039 43 251 1.0 4.0 0.00 0.11 0.00 94 1009.8
20260507032520 43 0 1.0 4.0 0.00 0.11 0.00 94 1009.8
20260507032023 43 263 0.0 3.0 0.00 0.11 0.00 94 1009.7
20260507031600 43 0 0.0 5.0 0.00 0.11 0.00 94 1009.6
20260507031022 43 251 1.0 5.0 0.00 0.11 0.00 94 1009.6
20260507030518 43 263 1.0 3.0 0.00 0.11 0.00 94 1009.5
20260507030049 43 0 0.0 4.0 0.00 0.11 0.00 94 1009.4
20260507025519 43 0 0.0 4.0 0.00 0.11 0.00 94 1009.6
20260507025018 43 280 1.0 4.0 0.00 0.11 0.00 94 1009.5
20260507024542 43 0 0.0 3.0 0.00 0.11 0.00 94 1009.6
20260507024020 43 5 0.0 3.0 0.00 0.11 0.00 94 1009.4
20260507023517 43 0 0.0 4.0 0.00 0.11 0.00 94 1009.4
20260507023037 43 271 0.0 4.0 0.00 0.11 0.00 94 1009.4
20260507022521 43 0 1.0 4.0 0.00 0.11 0.00 94 1009.4
20260507022022 43 3 0.0 4.0 0.00 0.11 0.00 94 1009.5
20260507021536 43 341 0.0 4.0 0.00 0.11 0.00 94 1009.4
20260507021016 43 282 0.0 3.0 0.00 0.11 0.00 94 1009.5
20260507020518 43 0 1.0 5.0 0.00 0.11 0.00 94 1009.5
20260507020040 43 336 1.0 5.0 0.00 0.11 0.00 94 1009.4
20260507015518 43 263 0.0 4.0 0.00 0.11 0.00 94 1009.4
20260507015018 43 295 0.0 3.0 0.00 0.11 0.00 94 1009.3
20260507014547 43 253 0.0 5.0 0.00 0.11 0.00 94 1009.3
20260507014018 43 0 1.0 5.0 0.00 0.11 0.00 94 1009.3
20260507013520 44 0 0.0 4.0 0.00 0.11 0.00 94 1009.4
20260507013037 44 271 0.0 4.0 0.00 0.11 0.00 94 1009.3
20260507012519 44 244 1.0 4.0 0.00 0.11 0.00 94 1009.2
20260507012024 44 0 0.0 3.0 0.00 0.11 0.00 94 1009.2
20260507011538 44 276 0.0 4.0 0.00 0.11 0.00 94 1009.2
20260507011018 44 0 1.0 4.0 0.00 0.11 0.00 94 1009.2
20260507010517 44 1 0.0 2.0 0.00 0.11 0.00 94 1009.0
20260507010041 44 0 0.0 3.0 0.00 0.11 0.00 94 1009.1
20260507005519 44 0 0.0 3.0 0.00 0.11 0.00 94 1009.0
20260507005020 44 0 0.0 3.0 0.00 0.11 0.00 94 1008.9
20260507004535 44 0 0.0 2.0 0.00 0.11 0.00 94 1009.0
20260507004023 44 292 0.0 3.0 0.00 0.11 0.00 94 1008.9
20260507003519 44 0 0.0 4.0 0.00 0.11 0.00 94 1009.0
20260507003048 44 280 0.0 4.0 0.00 0.11 0.00 94 1008.9
20260507002518 44 22 0.0 4.0 0.00 0.10 0.00 94 1009.0
20260507002018 44 0 0.0 5.0 0.00 0.10 0.00 94 1008.9
20260507001540 44 0 1.0 5.0 0.00 0.10 0.00 94 1008.9
20260507001020 44 60 0.0 3.0 0.00 0.10 0.00 94 1008.8
20260507000518 44 0 0.0 3.0 0.00 0.10 0.00 94 1008.9
20260507000041 44 332 0.0 3.0 0.00 0.10 0.00 94 1008.9
20260506235520 44 0 0.0 3.0 0.00 0.11 0.00 94 1008.9
20260506235019 44 0 0.0 3.0 0.00 0.11 0.00 94 1008.8
20260506234537 44 0 0.0 3.0 0.00 0.11 0.00 94 1009.0
20260506234019 44 0 0.0 3.0 0.00 0.11 0.00 94 1008.9
20260506233519 44 0 0.0 3.0 0.00 0.11 0.00 94 1009.0
20260506233042 44 0 0.0 3.0 0.00 0.11 0.00 94 1008.9
20260506232518 45 0 0.0 4.0 0.00 0.11 0.00 94 1009.0
20260506232019 45 0 0.0 4.0 0.00 0.11 0.00 94 1009.0
20260506231538 45 0 0.0 5.0 0.00 0.11 0.00 94 1008.8
20260506231018 45 0 1.0 5.0 0.00 0.11 0.00 93 1008.8
20260506230518 45 0 1.0 5.0 0.00 0.11 0.00 93 1008.9
20260506230042 45 0 0.0 2.0 0.00 0.11 0.00 93 1008.7
20260506225522 45 0 0.0 4.0 0.00 0.14 0.00 93 1008.6
20260506225016 45 0 0.0 4.0 0.00 0.14 0.00 93 1008.6
20260506224538 45 0 0.0 4.0 0.00 0.14 0.00 93 1008.8
20260506224020 45 0 0.0 3.0 0.00 0.14 0.00 93 1008.6
20260506223519 45 0 0.0 4.0 0.00 0.14 0.00 93 1008.5
20260506223037 45 290 0.0 4.0 0.00 0.14 0.00 93 1008.7
20260506222519 45 263 0.0 3.0 0.00 0.14 0.00 93 1008.7
20260506222020 45 0 0.0 3.0 0.00 0.14 0.00 93 1008.6
20260506221537 45 0 0.0 3.0 0.00 0.14 0.00 93 1008.5
20260506221019 45 5 0.0 5.0 0.00 0.14 0.00 93 1008.4
20260506220516 45 216 0.0 5.0 0.00 0.14 0.00 93 1008.5
20260506220036 45 357 0.0 5.0 0.00 0.14 0.00 93 1008.5
20260506215521 45 276 0.0 5.0 0.00 0.15 0.14 93 1008.4
20260506215023 45 0 0.0 3.0 0.00 0.15 0.14 93 1008.4
20260506214537 45 0 0.0 2.0 0.00 0.15 0.14 93 1008.4
20260506214018 45 0 0.0 4.0 0.00 0.15 0.14 93 1008.4
20260506213518 45 0 0.0 4.0 0.00 0.15 0.14 93 1008.2
20260506213035 45 0 0.0 3.0 0.00 0.15 0.14 93 1008.2
20260506212516 45 0 0.0 1.0 0.00 0.15 0.14 93 1008.1
20260506212018 45 0 0.0 1.0 0.00 0.15 0.14 93 1008.2
20260506211538 45 0 0.0 3.0 0.00 0.15 0.14 93 1008.1
20260506211018 45 0 0.0 3.0 0.00 0.15 0.14 93 1008.1
20260506210520 45 263 0.0 3.0 0.00 0.15 0.14 93 1008.0
20260506210038 45 0 0.0 4.0 0.00 0.15 0.14 93 1008.0
20260506205614 45 0 0.0 4.0 0.00 0.17 0.14 93 1007.9
20260506205017 45 0 0.0 2.0 0.00 0.17 0.14 93 1008.0
20260506204543 45 0 0.0 4.0 0.00 0.17 0.14 93 1007.9
20260506204016 45 0 0.0 4.0 0.00 0.17 0.14 93 1007.9
20260506203518 45 0 0.0 4.0 0.00 0.17 0.14 93 1007.9
20260506203037 45 0 0.0 3.0 0.00 0.17 0.14 93 1007.7
20260506202516 45 0 0.0 4.0 0.00 0.17 0.14 93 1007.8
20260506202020 45 0 1.0 4.0 0.00 0.17 0.14 93 1007.6
20260506201537 45 0 0.0 5.0 0.00 0.17 0.14 93 1007.6
20260506201033 45 0 0.0 5.0 0.00 0.17 0.14 93 1007.6
20260506200522 45 0 0.0 4.0 0.00 0.17 0.14 93 1007.5
20260506200036 45 0 2.0 4.0 0.00 0.17 0.14 93 1007.4
20260506195518 45 276 1.0 5.0 0.00 0.22 0.14 93 1007.4
20260506195018 45 0 0.0 5.0 0.00 0.22 0.14 93 1007.4
20260506194538 45 261 0.0 4.0 0.00 0.22 0.14 93 1007.4
20260506194016 45 0 0.0 3.0 0.00 0.22 0.14 93 1007.3
20260506193518 45 238 0.0 5.0 0.00 0.22 0.14 93 1007.4
20260506193037 46 0 0.0 5.0 0.00 0.22 0.14 93 1007.2
20260506192521 46 294 1.0 5.0 0.00 0.22 0.14 93 1007.2
20260506192018 46 319 1.0 4.0 0.00 0.22 0.14 93 1007.2
20260506191537 46 12 0.0 3.0 0.00 0.22 0.14 93 1007.2
20260506191027 46 0 0.0 3.0 0.00 0.22 0.14 93 1007.1
20260506190519 46 0 0.0 3.0 0.00 0.22 0.14 93 1007.3
20260506190037 46 228 0.0 3.0 0.00 0.22 0.14 93 1007.2
20260506185518 46 310 0.0 4.0 0.00 0.23 0.14 93 1007.1
20260506185019 46 0 0.0 4.0 0.00 0.23 0.14 93 1007.1
20260506184537 46 19 0.0 4.0 0.00 0.23 0.14 92 1006.9
20260506184018 46 0 1.0 4.0 0.00 0.23 0.14 92 1006.7
20260506183518 46 249 0.0 9.0 0.00 0.23 0.14 92 1006.7
20260506183039 46 276 2.0 9.0 0.00 0.23 0.14 92 1006.6
20260506182517 47 360 0.0 8.0 0.00 0.23 0.14 92 1006.7
20260506182016 47 298 1.0 8.0 0.00 0.23 0.14 92 1006.6
20260506181558 47 284 2.0 8.0 0.00 0.23 0.14 92 1006.7
20260506181020 47 245 2.0 7.0 0.00 0.23 0.14 92 1006.5
20260506180519 47 263 0.0 5.0 0.00 0.23 0.14 92 1006.6
20260506180046 47 315 0.0 8.0 0.00 0.23 0.14 92 1006.4
20260506175516 48 0 1.0 8.0 0.00 0.26 0.14 92 1006.5
20260506175023 48 1 2.0 4.0 0.00 0.26 0.14 93 1006.4
20260506174542 48 0 0.0 5.0 0.00 0.26 0.14 93 1006.2
20260506174017 48 327 0.0 5.0 0.00 0.26 0.14 92 1006.2
20260506173519 48 259 1.0 6.0 0.00 0.26 0.14 92 1006.4
20260506173039 48 312 1.0 8.0 0.00 0.26 0.14 92 1006.3
20260506172520 48 0 1.0 8.0 0.00 0.26 0.14 92 1006.2
20260506172016 48 262 1.0 4.0 0.00 0.26 0.14 92 1006.3
20260506171538 48 261 1.0 6.0 0.00 0.26 0.14 92 1006.2
20260506171018 48 290 1.0 6.0 0.00 0.26 0.14 92 1006.1
20260506170518 48 0 0.0 4.0 0.00 0.26 0.14 92 1006.0
20260506170050 48 263 0.0 6.0 0.00 0.26 0.14 93 1006.2
20260506165519 48 0 1.0 6.0 0.00 0.48 0.14 92 1006.1
20260506165018 48 360 1.0 6.0 0.00 0.48 0.14 92 1006.2
20260506164538 49 280 1.0 3.0 0.00 0.48 0.14 92 1006.1
20260506164017 49 0 0.0 4.0 0.00 0.48 0.14 92 1006.0
20260506163515 49 19 1.0 4.0 0.00 0.48 0.14 92 1006.0
20260506163056 49 356 0.0 5.0 0.00 0.48 0.14 92 1006.0
20260506162525 49 0 1.0 5.0 0.00 0.48 0.14 92 1005.9
20260506162018 49 303 1.0 3.0 0.00 0.48 0.14 92 1006.0
20260506161537 49 271 0.0 4.0 0.00 0.48 0.14 92 1006.0
20260506161016 49 37 0.0 4.0 0.00 0.48 0.14 92 1006.0
20260506160517 50 360 0.0 4.0 0.00 0.48 0.14 92 1006.0
20260506160036 50 14 0.0 3.0 0.00 0.48 0.14 92 1005.9
20260506155520 50 0 0.0 3.0 0.00 0.59 0.14 92 1005.8
20260506155018 50 87 0.0 4.0 0.00 0.59 0.14 92 1005.8
20260506154555 50 0 0.0 9.0 0.00 0.59 0.14 92 1005.6
20260506154018 50 0 1.0 9.0 0.00 0.59 0.14 92 1005.6
20260506153517 50 34 2.0 9.0 0.00 0.59 0.14 93 1005.6
20260506153039 50 6 0.0 6.0 0.00 0.59 0.14 93 1005.6
20260506152518 50 18 1.0 6.0 0.00 0.59 0.14 92 1005.5
20260506152023 51 70 1.0 5.0 0.00 0.59 0.14 93 1005.4
20260506151538 51 57 1.0 5.0 0.00 0.59 0.14 92 1005.5
20260506151018 51 53 0.0 3.0 0.00 0.59 0.14 92 1005.4
20260506150518 51 332 0.0 3.0 0.00 0.59 0.14 93 1005.4
20260506150037 51 7 0.0 4.0 0.00 0.59 0.14 93 1005.4
20260506145522 51 0 0.0 4.0 0.00 0.59 0.14 92 1005.4
20260506145017 51 0 0.0 7.0 0.01 0.59 0.14 92 1005.3
20260506144537 51 330 1.0 7.0 0.02 0.59 0.14 92 1005.3
20260506144017 51 0 1.0 4.0 0.03 0.59 0.14 92 1005.3
20260506143522 51 0 0.0 4.0 0.03 0.59 0.14 92 1005.3
20260506143046 51 0 0.0 4.0 0.03 0.59 0.14 93 1005.4
20260506142516 51 352 1.0 4.0 0.03 0.59 0.14 93 1005.3
20260506142018 51 0 0.0 8.0 0.03 0.59 0.14 93 1005.2
20260506141538 50 0 1.0 8.0 0.03 0.59 0.14 93 1005.3
20260506141016 50 261 0.0 4.0 0.03 0.59 0.14 93 1005.4
20260506140520 50 324 1.0 5.0 0.03 0.59 0.13 92 1005.3
20260506140032 51 349 2.0 8.0 0.03 0.59 0.13 92 1005.4
20260506135517 51 195 2.0 8.0 0.03 0.62 0.13 92 1005.3
20260506135017 52 259 0.0 5.0 0.03 0.61 0.12 92 1005.3
20260506134537 52 0 0.0 5.0 0.01 0.59 0.11 92 1005.2
20260506134022 52 241 1.0 9.0 0.01 0.59 0.11 92 1005.1
20260506133518 52 0 2.0 9.0 0.01 0.59 0.11 92 1005.1
20260506133039 52 316 1.0 4.0 0.00 0.59 0.10 92 1004.9
20260506132520 52 0 0.0 3.0 0.01 0.59 0.10 92 1005.1
20260506132017 52 14 0.0 4.0 0.01 0.59 0.10 92 1005.1
20260506131537 52 0 0.0 4.0 0.01 0.59 0.10 92 1005.1
20260506131023 52 0 0.0 3.0 0.01 0.59 0.10 92 1005.1
20260506130522 52 263 0.0 3.0 0.01 0.59 0.10 92 1005.0
20260506130037 53 0 0.0 4.0 0.01 0.59 0.10 92 1005.0
20260506125518 53 359 1.0 5.0 0.00 0.58 0.09 92 1005.1
20260506125018 52 0 0.0 5.0 0.00 0.58 0.09 92 1005.1
20260506124536 52 9 2.0 5.0 0.00 0.58 0.09 91 1005.1
20260506124018 53 280 1.0 3.0 0.00 0.58 0.09 90 1005.1
20260506123521 53 242 0.0 6.0 0.00 0.58 0.09 90 1005.0
20260506123038 53 0 1.0 8.0 0.00 0.58 0.09 89 1004.9
20260506122523 54 271 2.0 8.0 0.00 0.57 0.08 88 1005.0
20260506122021 54 271 2.0 6.0 0.00 0.57 0.08 88 1004.9
20260506121542 55 271 2.0 5.0 0.00 0.57 0.08 88 1004.8
20260506121018 55 271 2.0 5.0 0.00 0.57 0.08 88 1004.8
20260506120521 55 271 2.0 4.0 0.00 0.57 0.08 88 1004.8
20260506120038 55 271 2.0 6.0 0.00 0.57 0.08 88 1004.8
20260506115517 55 271 1.0 6.0 0.00 0.57 0.08 89 1004.7
20260506115021 55 271 1.0 6.0 0.00 0.57 0.08 89 1004.8
20260506114544 54 0 1.0 6.0 0.00 0.57 0.08 90 1004.8
20260506114021 54 271 1.0 7.0 0.00 0.57 0.08 90 1004.7
20260506113521 54 271 2.0 7.0 0.00 0.57 0.08 89 1004.7
20260506113039 55 271 2.0 6.0 0.00 0.57 0.08 88 1004.6
20260506112521 55 271 2.0 10.0 0.00 0.57 0.08 89 1004.6
20260506112025 55 0 3.0 10.0 0.00 0.57 0.08 89 1004.6
20260506111544 55 271 1.0 9.0 0.00 0.57 0.08 90 1004.5
20260506111018 55 271 1.0 6.0 0.00 0.57 0.08 90 1004.6
20260506110523 54 247 1.0 6.0 0.00 0.57 0.08 91 1004.5
20260506110038 54 280 1.0 6.0 0.00 0.57 0.08 91 1004.5
20260506105521 54 290 1.0 4.0 0.00 0.57 0.08 91 1004.6
20260506105022 54 0 0.0 4.0 0.00 0.57 0.08 91 1004.6
20260506104538 54 203 1.0 4.0 0.00 0.57 0.08 91 1004.6
20260506104018 54 252 1.0 3.0 0.00 0.57 0.08 91 1004.7
20260506103519 54 0 1.0 3.0 0.00 0.57 0.08 91 1004.7
20260506103037 54 261 1.0 3.0 0.00 0.57 0.08 90 1004.7
20260506102520 54 271 1.0 3.0 0.00 0.57 0.08 91 1004.6
20260506102110 54 0 0.0 5.0 0.00 0.57 0.08 90 1004.6
20260506101537 54 271 0.0 5.0 0.00 0.57 0.08 91 1004.6
20260506101019 54 271 0.0 4.0 0.00 0.57 0.08 92 1004.5
20260506100518 53 0 0.0 5.0 0.00 0.57 0.08 93 1004.6
20260506100036 53 271 0.0 5.0 0.00 0.57 0.08 93 1004.5
20260506095518 53 271 1.0 5.0 0.00 0.57 0.08 93 1004.6
20260506095022 53 271 1.0 4.0 0.00 0.57 0.08 93 1004.5
20260506094548 53 271 0.0 5.0 0.00 0.57 0.08 95 1004.5
20260506094019 53 0 0.0 5.0 0.00 0.57 0.08 94 1004.5
20260506093518 53 0 1.0 5.0 0.00 0.57 0.08 94 1004.6
20260506093038 53 0 1.0 6.0 0.00 0.57 0.08 94 1004.6
20260506092518 53 271 2.0 6.0 0.00 0.57 0.08 95 1004.6
20260506092019 52 0 1.0 4.0 0.00 0.57 0.08 95 1004.5
20260506091538 52 0 1.0 4.0 0.00 0.57 0.08 95 1004.5
20260506091018 52 0 1.0 4.0 0.00 0.57 0.08 95 1004.4
20260506090517 51 320 1.0 4.0 0.00 0.57 0.08 95 1004.5
20260506090037 51 357 1.0 3.0 0.00 0.57 0.08 96 1004.5
20260506085519 51 299 1.0 4.0 0.01 0.57 0.08 95 1004.3
20260506085020 51 271 0.0 4.0 0.01 0.57 0.08 96 1004.3
20260506084538 51 0 1.0 4.0 0.01 0.57 0.08 96 1004.3
20260506084021 51 289 1.0 4.0 0.01 0.57 0.08 96 1004.3
20260506083521 51 240 0.0 3.0 0.01 0.57 0.08 96 1004.3
20260506083037 51 324 0.0 3.0 0.01 0.57 0.08 96 1004.3
20260506082518 51 255 1.0 3.0 0.01 0.57 0.08 95 1004.3
20260506082019 51 359 0.0 4.0 0.01 0.57 0.08 96 1004.1
20260506081543 50 249 1.0 4.0 0.00 0.56 0.07 96 1004.2
20260506081020 50 0 1.0 4.0 0.00 0.56 0.07 96 1004.1
20260506080519 50 261 1.0 3.0 0.00 0.56 0.07 96 1004.2
20260506073519 50 258 0.0 4.0 0.00 0.55 0.07 96 1004.0
20260506073042 50 0 0.0 4.0 0.00 0.55 0.07 96 1003.9
20260506072518 50 261 0.0 3.0 0.00 0.55 0.07 96 1004.0
20260506072021 50 271 1.0 3.0 0.01 0.55 0.07 96 1003.9
20260506071537 50 236 0.0 3.0 0.01 0.55 0.07 96 1003.9
20260506071018 50 253 0.0 4.0 0.02 0.55 0.07 96 1003.9
20260506070517 50 281 1.0 4.0 0.02 0.55 0.07 96 1003.9